Location: Keppel Henge
(44.7900°N, 80.9447°W)
Time: 04:04:51
(UTC-05:00)

Vanguard 3 - Visible Passes

Search period start: 16 December 2017 00:00
Search period end: 26 December 2017 00:00
Orbit: 509 x 3263 km, 33.3° (Epoch: 15 December)

Date Brightness Start Highest point End Pass type
(mag) Time Alt. Az. Time Alt. Az. Time Alt. Az.
22 Dec 11.4 07:11:55 10° S 07:15:50 12° SSE 07:19:12 10° SE visible
24 Dec 11.2 06:52:21 10° S 06:59:55 17° SSE 07:05:44 10° ESE visible
25 Dec 11.5 05:40:42 10° SSE 05:45:19 12° SSE 05:49:22 10° SE visible
